Location: Kuppenheim
(48.8299°N, 8.2568°E)
Time: 06:58:24
(UTC+00:00)

ERBS - Pass Details

Date: 29 October 2021
Orbit: 393 x 407 km, 57.0° (Epoch: 30 November)

Event Time Altitude Azimuth Distance (km) Brightness Sun altitude
Exits shadow 05:21:38 12° 276° (W) 1,370 4.2 -8.4°
Maximum altitude 05:24:20 31° 339° (NNW) 744 3.2 -7.9°
Drops below altitude 10° 05:27:22 10° 44° (NE) 1,496 5.5 -7.4°
Sets 05:29:33 0° 55° (NE) 2,342 6.7 -7.1°
